Lid_Strength_Index
2 3 3 3 3 3 3 3 3 3 3 3 3 2 2 2 2 3 6 4 3 0 1 4 4 4 4 5 4 4 8 9 9 8 8 6 6 6 6 6 6 5 5 5 5
2 3 3 3 3 3 3 3 3 3 3 3 3 3 3 3 3 5 1 2 -0 -1 3 5 6 5 5 5 5 6 8 8 6 6 7 7 7 6 7 7 6 5 4 4 5
2 2 3 3 3 3 3 3 3 4 3 3 3 3 3 2 5 4 -1 0 -1 -1 2 3 4 5 6 5 6 6 7 6 6 6 6 7 7 6 7 7 5 5 4 4 4
2 2 3 3 3 3 3 4 4 3 3 3 3 3 3 3 8 3 -1 -1 -1 1 3 4 5 6 6 7 5 8 6 6 6 6 6 6 6 6 6 5 4 4 4 4 4
2 2 3 3 3 4 4 4 4 4 4 3 3 4 3 6 7 -1 -2 -1 -1 2 5 5 5 6 7 6 6 7 6 6 6 6 6 6 7 6 6 4 4 4 4 4 4
3 2 3 3 3 3 3 3 4 4 4 3 4 4 4 9 5 -0 1 0 1 3 5 4 5 5 6 7 7 6 6 6 6 6 6 7 6 7 6 4 4 4 4 3 4
2 3 3 3 3 3 3 3 3 3 3 3 3 3 5 7 4 0 1 2 3 4 4 3 4 6 6 7 6 7 8 7 6 6 6 6 7 7 5 5 5 5 4 4 3
4 3 3 3 3 3 3 3 3 3 3 3 3 2 6 4 3 1 1 3 3 2 3 3 4 5 6 6 7 8 8 9 6 7 6 7 9 6 5 5 5 5 4 4 3
6 5 4 3 3 3 3 4 3 3 2 2 2 3 6 2 4 3 0 4 4 3 3 3 4 5 6 8 8 8 10 9 8 7 7 8 8 6 5 5 5 4 4 4 3
5 6 6 4 3 3 4 3 3 2 1 2 2 5 3 6 4 3 1 3 4 4 4 4 5 7 7 8 11 10 10 10 10 7 7 8 8 6 5 5 5 4 4 4 3
5 6 6 6 5 4 4 2 3 4 3 5 5 5 5 3 2 3 2 3 3 4 7 6 8 9 8 7 8 9 9 10 8 7 8 7 7 6 5 5 5 4 4 3 3
5 5 5 6 6 6 5 5 4 3 6 4 4 4 4 3 6 4 2 5 6 8 6 8 9 7 7 8 9 9 9 9 8 7 8 8 8 6 6 5 5 4 4 3 3
5 5 5 6 6 7 7 6 4 3 6 6 5 5 5 4 6 5 4 5 7 8 8 9 8 7 8 8 9 9 10 9 9 8 7 8 9 8 6 5 5 4 3 3 3
5 5 5 6 7 5 7 5 4 5 11 9 7 5 4 4 6 4 4 5 7 9 8 9 7 8 9 10 9 11 8 9 9 10 12 8 13 9 7 7 6 5 4 4 3
5 5 5 6 5 6 5 4 4 5 16 9 8 4 5 7 5 5 3 5 8 8 8 9 9 9 10 9 8 10 8 9 9 10 10 10 11 10 7 8 7 6 5 4 4
4 4 5 5 4 5 4 4 4 11 17 11 9 10 9 7 8 6 5 4 5 7 7 8 6 7 7 7 8 7 9 8 8 9 13 10 11 11 9 8 7 5 5 5 4
4 5 5 4 6 4 4 4 10 13 10 12 11 10 10 11 9 9 8 8 9 10 10 8 8 7 7 9 7 8 10 13 13 13 14 9 11 10 8 7 6 6 6 5 5
4 5 5 3 3 3 4 7 14 12 12 9 10 10 12 10 10 10 10 11 8 9 10 12 13 9 8 9 9 8 9 12 17 16 14 9 13 10 7 7 6 6 5 5 5
5 1 1 2 1 1 4 10 10 10 10 11 10 11 11 10 9 9 9 10 9 8 12 12 12 9 9 8 8 9 10 8 12 11 14 11 10 8 7 7 7 6 6 5 5
3 1 2 1 0 1 6 10 8 7 8 8 11 10 12 11 11 10 10 8 9 8 7 9 14 8 7 7 8 9 8 12 12 18 19 13 12 11 9 8 7 7 7 6 5
2 4 2 1 -0 4 8 8 7 5 6 8 9 10 10 11 10 11 11 8 7 9 8 9 11 11 9 10 11 10 11 10 11 13 18 18 14 8 8 7 7 6 6 5 5
3 6 1 0 6 4 7 7 8 7 5 7 7 8 9 9 11 11 11 9 6 7 9 8 11 14 11 7 7 8 9 10 16 16 13 15 15 6 6 6 6 6 5 5 4
4 4 1 1 8 7 7 7 6 7 7 7 8 7 7 9 12 10 9 6 6 7 10 9 13 16 13 10 8 10 9 9 10 13 17 18 14 7 6 6 6 6 6 5 4
4 7 4 3 4 7 9 8 9 6 7 6 7 7 8 10 8 12 10 7 6 6 7 7 11 13 16 13 10 13 11 10 12 17 15 14 12 9 7 7 7 5 4 4 4
4 7 6 8 7 7 7 8 9 9 6 6 8 8 9 11 10 11 9 8 7 6 7 9 14 11 11 10 10 11 11 10 12 13 16 12 11 9 8 7 6 5 5 5 4
5 6 5 6 7 8 9 9 9 9 8 9 9 8 9 11 10 11 9 9 10 7 8 9 13 11 12 10 11 12 11 11 11 11 11 10 11 7 6 5 6 5 5 5 4
3 3 5 9 8 8 8 9 9 8 7 7 7 8 9 8 6 6 5 6 7 9 10 11 11 13 14 11 12 13 11 10 10 9 9 11 8 6 7 7 6 5 5 5 4